Le nostre stazioni meteo in Italia

Pubblicità
Il mio iltempo24.it
Kinlochewe, Gran Bretagna (99092): Temperatura & dewpoint: 22.06.2017 23:00:00 - 28.06.2017 23:00:00 (BST)Kinlochewe, Gran Bretagna (99092): Temperatura -20cm: 22.06.2017 23:00:00 - 28.06.2017 23:00:00 (BST)Kinlochewe, Gran Bretagna (99092): velocità del vento: 22.06.2017 23:00:00 - 28.06.2017 23:00:00 (BST)Kinlochewe, Gran Bretagna (99092): direzione del vento: 22.06.2017 23:00:00 - 28.06.2017 23:00:00 (BST)Kinlochewe, Gran Bretagna (99092): visibility: 22.06.2017 23:00:00 - 28.06.2017 23:00:00 (BST)Kinlochewe, Gran Bretagna (99092): precipitazioni: 22.06.2017 23:00:00 - 28.06.2017 23:00:00 (BST)
Data & Tempo tt [°C] td [°C] tt -20cm [°C] ff [km/h] ff [kn] dd vv [km] rr [mm]
28.06.2017 23:00:00 10,2 5,2 - - - - - 0,0
28.06.2017 22:00:00 10,9 5,1 - - - - - 0,0
28.06.2017 21:00:00 11,9 5,6 - - - - - 0,0
28.06.2017 20:00:00 12,4 6,4 - - - - - 0,0
28.06.2017 19:00:00 13,6 6,8 - - - - - 0,0
28.06.2017 18:00:00 14,2 7,0 - - - - - 0,0
28.06.2017 17:00:00 14,2 7,6 - - - - - 0,0
28.06.2017 16:00:00 14,6 8,0 - - - - - 0,0
28.06.2017 15:00:00 16,5 8,2 - - - - - 0,0
28.06.2017 14:00:00 15,3 8,9 - - - - - 0,0
28.06.2017 13:00:00 14,8 9,2 - - - - - 0,0
28.06.2017 12:00:00 14,9 9,6 - - - - - 0,0
28.06.2017 11:00:00 14,6 9,5 - - - - - 0,0
28.06.2017 10:00:00 13,9 9,2 13,5 - - N 22 0,0
28.06.2017 09:00:00 14,0 9,1 - - - - - 0,0
28.06.2017 08:00:00 12,9 8,5 - - - - - 0,0
28.06.2017 07:00:00 12,3 8,6 - - - - - 0,0
28.06.2017 06:00:00 11,8 8,2 - - - - - 0,0
28.06.2017 05:00:00 11,5 8,2 - - - - - 0,0
28.06.2017 04:00:00 10,8 7,9 - - - - - 0,0
28.06.2017 03:00:00 10,8 7,8 - - - - - 0,0
28.06.2017 02:00:00 11,1 8,0 - - - - - 0,0
28.06.2017 01:00:00 11,4 8,3 - - - - - 0,0
28.06.2017 00:00:00 11,6 8,4 - - - - - 0,0
27.06.2017 23:00:00 11,9 8,5 - - - - - 0,0
27.06.2017 22:00:00 12,3 8,6 - - - - - 0,0
27.06.2017 21:00:00 12,7 8,7 - - - - - 0,0
27.06.2017 20:00:00 12,9 8,8 - - - - - 0,0
27.06.2017 19:00:00 13,1 8,9 - - - - - 0,0
27.06.2017 18:00:00 13,2 8,9 - - - - - 0,0
27.06.2017 17:00:00 13,3 8,9 - - - - - 0,0
27.06.2017 16:00:00 13,2 8,8 - - - - - 0,0
27.06.2017 15:00:00 13,7 9,0 - - - - - 0,0
27.06.2017 14:00:00 13,2 9,1 - - - - - 0,0
27.06.2017 13:00:00 12,8 9,0 - - - - - 0,0
27.06.2017 12:00:00 12,7 8,2 - - - - - 0,0
27.06.2017 11:00:00 12,5 7,8 - - - - - 0,0
27.06.2017 10:00:00 12,1 7,5 14,0 25 14 N 4,0 0,0
27.06.2017 09:00:00 11,5 7,6 - - - - - 0,0
27.06.2017 08:00:00 11,4 7,7 - - - - - 0,0
27.06.2017 07:00:00 10,9 7,8 - - - - - 0,0
27.06.2017 06:00:00 10,7 8,0 - - - - - 0,0
27.06.2017 05:00:00 10,8 8,2 - - - - - 0,0
27.06.2017 04:00:00 10,7 8,1 - - - - - 0,0
27.06.2017 03:00:00 11,3 7,8 - - - - - 0,0
27.06.2017 02:00:00 11,2 7,4 - - - - - 0,0
27.06.2017 01:00:00 11,1 6,3 - - - - - 0,0
27.06.2017 00:00:00 11,4 5,1 - - - - - 0,0
26.06.2017 23:00:00 11,6 5,6 - - - - - 0,0
26.06.2017 22:00:00 12,2 6,0 - - - - - 0,0
26.06.2017 21:00:00 12,4 8,3 - - - - - 0,0
26.06.2017 20:00:00 13,1 8,2 - - - - - 0,0
26.06.2017 19:00:00 13,6 8,3 - - - - - 0,0
26.06.2017 18:00:00 13,7 7,8 - - - - - 0,0
26.06.2017 17:00:00 14,0 7,8 - - - - - 0,0
26.06.2017 16:00:00 14,2 7,7 - - - - - 0,0
26.06.2017 15:00:00 13,8 7,8 - - - - - 0,0
26.06.2017 14:00:00 13,1 7,7 - - - - - 0,0
26.06.2017 13:00:00 13,2 7,2 - - - - - 0,0
26.06.2017 12:00:00 13,0 6,6 - - - - - 0,0
26.06.2017 11:00:00 12,9 7,7 - - - - - 0,0
26.06.2017 10:00:00 12,9 7,9 13,7 - - N 30 0,0
26.06.2017 09:00:00 11,8 8,1 - - - - - 0,0
26.06.2017 08:00:00 12,1 10,4 - - - - - 0,0
26.06.2017 07:00:00 9,7 9,4 - - - - - 0,0
26.06.2017 06:00:00 8,9 8,4 - - - - - 0,0
26.06.2017 05:00:00 9,3 9,1 - - - - - 0,2
26.06.2017 04:00:00 9,2 9,0 - - - - - 0,8
26.06.2017 03:00:00 9,2 9,0 - - - - - 0,0
26.06.2017 02:00:00 9,4 9,2 - - - - - 0,0
26.06.2017 01:00:00 9,4 9,2 - - - - - 0,0
26.06.2017 00:00:00 9,4 9,1 - - - - - 0,0
25.06.2017 23:00:00 9,5 9,1 - - - - - 0,2
25.06.2017 22:00:00 10,1 8,6 - - - - - 0,4
25.06.2017 21:00:00 11,1 9,5 - - - - - 0,0
25.06.2017 20:00:00 11,1 9,2 - - - - - 0,2
25.06.2017 19:00:00 11,6 8,0 - - - - - 0,0
25.06.2017 18:00:00 13,3 8,2 - - - - - 0,0
25.06.2017 17:00:00 13,8 8,9 - - - - - 0,0
25.06.2017 16:00:00 13,1 7,6 - - - - - 0,0
25.06.2017 15:00:00 13,2 9,9 - - - - - 0,2
25.06.2017 14:00:00 11,6 8,7 - - - - - 0,4
25.06.2017 13:00:00 13,5 7,4 - - - - - 0,0
25.06.2017 12:00:00 12,5 8,8 - - - - - 0,4
25.06.2017 11:00:00 12,7 6,6 - - - - - 0,0
25.06.2017 10:00:00 12,3 7,3 13,9 - - N 40 0,0
25.06.2017 09:00:00 12,1 6,7 - - - - - 0,0
25.06.2017 08:00:00 11,5 6,4 - - - - - 0,0
25.06.2017 07:00:00 11,0 6,9 - - - - - 0,0
25.06.2017 06:00:00 10,7 6,9 - - - - - 0,6
25.06.2017 05:00:00 10,1 7,9 - - - - - 0,4
25.06.2017 04:00:00 10,4 7,7 - - - - - 0,2
25.06.2017 03:00:00 11,4 6,2 - - - - - 0,0
25.06.2017 02:00:00 10,6 6,6 - - - - - 0,0
25.06.2017 01:00:00 10,6 7,6 - - - - - 2,0
25.06.2017 00:00:00 10,2 8,3 - - - - - 1,8
24.06.2017 23:00:00 10,5 8,3 - - - - - 3,2
24.06.2017 22:00:00 10,1 8,1 - - - - - 2,6
24.06.2017 21:00:00 10,0 7,8 - - - - - 3,4
24.06.2017 20:00:00 10,6 7,2 - - - - - 0,4
24.06.2017 19:00:00 11,7 6,4 - - - - - 0,2
24.06.2017 18:00:00 12,2 6,0 - - - - - 0,4
24.06.2017 17:00:00 11,5 7,8 - - - - - 1,0
24.06.2017 16:00:00 13,2 7,9 - - - - - 0,2
24.06.2017 15:00:00 13,3 7,3 - - - - - 0,0
24.06.2017 14:00:00 13,9 8,0 - - - - - 0,6
24.06.2017 13:00:00 14,0 8,2 - - - - - 0,2
24.06.2017 12:00:00 13,2 8,8 - - - - - 0,8
24.06.2017 11:00:00 11,3 7,8 - - - - - 0,4
24.06.2017 10:00:00 12,1 7,1 14,0 180 97 N 27 0,6
24.06.2017 09:00:00 10,6 7,1 - - - - - 1,2
24.06.2017 08:00:00 10,2 6,7 - - - - - 0,4
24.06.2017 07:00:00 9,9 6,9 - - - - - 0,2
24.06.2017 06:00:00 10,2 6,8 - - - - - 0,4
24.06.2017 05:00:00 9,8 6,2 - - - - - 0,6
24.06.2017 04:00:00 10,2 6,8 - - - - - 0,2
24.06.2017 03:00:00 10,8 6,5 - - - - - 0,0
24.06.2017 02:00:00 10,3 7,3 - - - - - 1,0
24.06.2017 01:00:00 10,2 7,6 - - - - - 1,2
24.06.2017 00:00:00 10,1 7,8 - - - - - 1,2
23.06.2017 23:00:00 12,4 5,0 - - - - - 0,0
23.06.2017 22:00:00 12,2 5,5 - - - - 10 0,0
23.06.2017 21:00:00 12,9 4,8 - - - - - 0,0
23.06.2017 20:00:00 13,3 4,6 - - - - - 0,0
23.06.2017 19:00:00 13,9 5,6 - - - - - 0,0
23.06.2017 18:00:00 15,8 6,4 - - - - - 0,0
23.06.2017 17:00:00 14,3 7,0 - - - - - 0,0
23.06.2017 16:00:00 16,6 7,3 - - - - - 0,0
23.06.2017 15:00:00 15,0 7,2 - - - - - 0,0
23.06.2017 14:00:00 14,6 6,5 - - - - - 0,0
23.06.2017 13:00:00 14,2 7,1 - - - - - 0,0
23.06.2017 12:00:00 13,0 8,6 - - - - - 0,6
23.06.2017 11:00:00 13,7 11,0 - - - - - 0,0
23.06.2017 10:00:00 13,0 10,0 14,0 90 49 N 1,3 0,2
23.06.2017 09:00:00 13,4 9,6 - - - - - 0,0
23.06.2017 08:00:00 13,0 9,8 - - - - - 0,6
23.06.2017 07:00:00 13,7 11,9 - - - - - 0,8
23.06.2017 06:00:00 14,4 11,8 - - - - - 0,2
23.06.2017 05:00:00 14,0 11,8 - - - - - 0,4
23.06.2017 04:00:00 14,1 11,4 - - - - - 0,2
23.06.2017 03:00:00 13,9 11,0 - - - - - 0,0
23.06.2017 02:00:00 13,5 10,9 - - - - - 1,0
23.06.2017 01:00:00 13,4 10,7 - - - - - 0,0
23.06.2017 00:00:00 12,8 11,0 - - - - - 0,4
22.06.2017 23:00:00 12,7 11,2 - - - - - 0,6

tt = Temperatura
td = dewpoint
tt -20cm = Temperatura -20cm
ff = velocità del vento
dd = direzione del vento
vv = visibility
rr = precipitazioni

Stazioni seguenti

WeatherPro
AMSI
MeteoEarth